timestamp,surface_pressure_avg,surface_temp_avg,battery_voltage,lat,long
2018-09-15 00:00:00+00:00,237.6031,16.9,13.05,47.84626,-54.09684
2018-09-15 00:10:00+00:00,238.8698,16.9,13.05,47.84626,-54.09684
2018-09-15 00:20:00+00:00,244.4431,16.9,13.05,47.84626,-54.09684
2018-09-15 00:30:00+00:00,249.7148,16.9,13.05,47.84626,-54.09684
2018-09-15 00:40:00+00:00,253.0531,16.9,13.13,47.84626,-54.09684
2018-09-15 00:50:00+00:00,257.8314,16.9,13.13,47.84626,-54.09684
2018-09-15 01:00:00+00:00,264.0248,16.9,13.05,47.84626,-54.09684
2018-09-15 01:10:00+00:00,270.2364,16.9,12.97,47.84626,-54.09684
2018-09-15 01:20:00+00:00,275.4247,16.9,13.05,47.84626,-54.09684
2018-09-15 01:30:00+00:00,282.3231,16.88,13.05,47.84626,-54.09684
2018-09-15 01:40:00+00:00,290.8647,16.86,13.13,47.84626,-54.09684
2018-09-15 01:50:00+00:00,297.2848,16.88,13.13,47.84626,-54.09684
2018-09-15 02:00:00+00:00,302.238,16.89,13.05,47.84626,-54.09684
2018-09-15 02:10:00+00:00,309.6364,16.88,12.97,47.84626,-54.09684
2018-09-15 02:20:00+00:00,316.2413,16.89,13.05,47.84626,-54.09684
2018-09-15 02:30:00+00:00,313.3663,16.88,13.05,47.84626,-54.09684
2018-09-15 02:40:00+00:00,314.708,16.89,13.05,47.84626,-54.09684
2018-09-15 02:50:00+00:00,322.1913,16.8,13.05,47.84626,-54.09684
2018-09-15 03:00:00+00:00,326.9947,16.8,13.05,47.84626,-54.09684
2018-09-15 03:10:00+00:00,320.8279,16.86,12.97,47.84626,-54.09684
2018-09-15 03:20:00+00:00,323.9579,16.88,13.05,47.84626,-54.09684
2018-09-15 03:30:00+00:00,325.8713,16.88,13.05,47.84626,-54.09684
2018-09-15 03:40:00+00:00,321.1346,16.88,13.05,47.84626,-54.09684
2018-09-15 03:50:00+00:00,319.663,16.87,13.05,47.84626,-54.09684
2018-09-15 04:00:00+00:00,322.3846,16.85,13.05,47.84626,-54.09684
2018-09-15 04:10:00+00:00,317.5863,16.83,12.97,47.84626,-54.09684
2018-09-15 04:20:00+00:00,310.5198,16.8,13.05,47.84626,-54.09684
2018-09-15 04:30:00+00:00,312.9897,16.8,13.05,47.84626,-54.09684
2018-09-15 04:40:00+00:00,313.993,16.8,13.05,47.84626,-54.09684
2018-09-15 04:50:00+00:00,307.5447,16.8,13.05,47.84626,-54.09684
2018-09-15 05:00:00+00:00,303.7664,16.8,13.05,47.84626,-54.09684
2018-09-15 05:10:00+00:00,303.1547,16.79,12.97,47.84626,-54.09684
2018-09-15 05:20:00+00:00,300.488,16.79,12.97,47.84626,-54.09684
2018-09-15 05:30:00+00:00,295.3298,16.78,13.05,47.84626,-54.09684
2018-09-15 05:40:00+00:00,291.0814,16.77,13.05,47.84626,-54.09684
2018-09-15 05:50:00+00:00,281.9948,16.75,13.05,47.84626,-54.09684
2018-09-15 06:00:00+00:00,271.1864,16.73,12.97,47.84626,-54.09684
2018-09-15 06:10:00+00:00,266.5714,16.74,12.89,47.84626,-54.09684
2018-09-15 06:20:00+00:00,261.9231,16.74,12.97,47.84626,-54.09684
2018-09-15 06:30:00+00:00,249.9981,16.71,12.97,47.84626,-54.09684
2018-09-15 06:40:00+00:00,237.8214,16.7,13.05,47.84626,-54.09684
2018-09-15 06:50:00+00:00,231.6231,16.7,13.05,47.84626,-54.09684
2018-09-15 07:00:00+00:00,225.5997,16.7,12.97,47.84626,-54.09684
2018-09-15 07:10:00+00:00,214.4164,16.7,12.89,47.84626,-54.09684
2018-09-15 07:20:00+00:00,205.2215,16.7,12.97,47.84626,-54.09684
2018-09-15 07:30:00+00:00,201.0081,16.7,12.97,47.84626,-54.09684
2018-09-15 07:40:00+00:00,196.1431,16.7,12.97,47.84626,-54.09684
2018-09-15 07:50:00+00:00,186.4381,16.7,13.05,47.84626,-54.09684
2018-09-15 08:00:00+00:00,177.9331,16.7,12.97,47.84626,-54.09684
2018-09-15 08:10:00+00:00,176.3148,16.69,12.89,47.84626,-54.09684
2018-09-15 08:20:00+00:00,174.2814,16.6,12.97,47.84626,-54.09684
2018-09-15 08:30:00+00:00,170.3332,16.5,12.97,47.84626,-54.09684
2018-09-15 08:40:00+00:00,169.0098,16.52,12.97,47.84626,-54.09684
2018-09-15 08:50:00+00:00,173.2798,16.58,12.97,47.84626,-54.09684
2018-09-15 09:00:00+00:00,176.4331,16.6,12.97,47.84626,-54.09684
2018-09-15 09:10:00+00:00,176.1715,16.6,12.89,47.84626,-54.09684
2018-09-15 09:20:00+00:00,181.9281,16.63,12.97,47.84626,-54.09684
2018-09-15 09:30:00+00:00,188.6031,16.61,12.97,47.84626,-54.09684
2018-09-15 09:40:00+00:00,190.8615,16.66,12.97,47.84626,-54.09684
2018-09-15 09:50:00+00:00,197.2881,16.69,12.97,47.84626,-54.09684
2018-09-15 10:00:00+00:00,206.4698,16.69,12.89,47.84626,-54.09684
2018-09-15 10:10:00+00:00,209.4714,16.7,12.81,47.84626,-54.09684
2018-09-15 10:20:00+00:00,210.8231,16.7,12.97,47.84626,-54.09684
2018-09-15 10:30:00+00:00,219.1664,16.69,12.97,47.84626,-54.09684
2018-09-15 10:40:00+00:00,225.1965,16.69,12.97,47.84626,-54.09684
2018-09-15 10:50:00+00:00,222.6781,16.68,12.97,47.84626,-54.09684
2018-09-15 11:00:00+00:00,223.9531,16.7,12.97,47.84626,-54.09684
2018-09-15 11:10:00+00:00,233.2914,16.69,12.89,47.84626,-54.09684
2018-09-15 11:20:00+00:00,235.0231,16.69,12.97,47.84626,-54.09684
2018-09-15 11:30:00+00:00,233.6164,16.69,12.97,47.84626,-54.09684
2018-09-15 11:40:00+00:00,234.9214,16.69,13.05,47.84626,-54.09684
2018-09-15 11:50:00+00:00,238.9931,16.69,13.05,47.84626,-54.09684
2018-09-15 12:00:00+00:00,238.8047,16.69,13.05,47.84626,-54.09684
2018-09-15 12:10:00+00:00,241.0164,16.7,12.97,47.84626,-54.09684
2018-09-15 12:20:00+00:00,249.2564,16.69,13.05,47.84626,-54.09684
2018-09-15 12:30:00+00:00,252.4931,16.68,13.13,47.84626,-54.09684
2018-09-15 12:40:00+00:00,252.7014,16.68,13.21,47.84626,-54.09684
2018-09-15 12:50:00+00:00,262.8581,16.66,13.21,47.84626,-54.09684
2018-09-15 13:00:00+00:00,275.8248,16.64,13.29,47.84626,-54.09684
2018-09-15 13:10:00+00:00,278.4664,16.66,13.21,47.84626,-54.09684
2018-09-15 13:20:00+00:00,281.1531,16.65,13.29,47.84626,-54.09684
2018-09-15 13:30:00+00:00,295.2764,16.63,13.37,47.84626,-54.09684
2018-09-15 13:40:00+00:00,306.7464,16.66,13.53,47.84626,-54.09684
2018-09-15 13:50:00+00:00,308.3414,16.66,13.68,47.84626,-54.09684
2018-09-15 14:00:00+00:00,312.2347,16.68,13.76,47.84626,-54.09684
2018-09-15 14:10:00+00:00,322.1146,16.68,15.2,47.84626,-54.09684
2018-09-15 14:20:00+00:00,323.3497,16.69,15.75,47.84626,-54.09684
2018-09-15 14:30:00+00:00,323.8163,16.7,14.64,47.84626,-54.09684
2018-09-15 14:40:00+00:00,331.9097,16.7,15.2,47.84626,-54.09684
2018-09-15 14:50:00+00:00,335.7629,16.7,15.04,47.84626,-54.09684
2018-09-15 15:00:00+00:00,333.3146,16.7,14.32,47.84626,-54.09684
2018-09-15 15:10:00+00:00,334.778,16.7,14.08,47.84626,-54.09684
2018-09-15 15:20:00+00:00,339.6546,16.7,14.08,47.84626,-54.09684
2018-09-15 15:30:00+00:00,341.6014,16.7,14.08,47.84626,-54.09684
2018-09-15 15:40:00+00:00,340.4597,16.7,14.08,47.84626,-54.09684
2018-09-15 15:50:00+00:00,342.7697,16.7,14.08,47.84626,-54.09684
2018-09-15 16:00:00+00:00,343.828,16.7,14.0,47.84626,-54.09684
2018-09-15 16:10:00+00:00,341.6963,16.7,13.92,47.84626,-54.09684
2018-09-15 16:20:00+00:00,339.5179,16.74,14.0,47.84626,-54.09684
2018-09-15 16:30:00+00:00,340.0713,16.77,14.0,47.84626,-54.09684
2018-09-15 16:40:00+00:00,340.493,16.8,14.0,47.84626,-54.09684
2018-09-15 16:50:00+00:00,336.9346,16.8,14.08,47.84626,-54.09684
2018-09-15 17:00:00+00:00,335.8763,16.8,14.08,47.84626,-54.09684
2018-09-15 17:10:00+00:00,335.058,16.8,14.0,47.84626,-54.09684
2018-09-15 17:20:00+00:00,331.458,16.8,14.08,47.84626,-54.09684
2018-09-15 17:30:00+00:00,323.8113,16.8,14.08,47.84626,-54.09684
2018-09-15 17:40:00+00:00,320.198,16.8,14.16,47.84626,-54.09684
2018-09-15 17:50:00+00:00,318.3497,16.8,14.08,47.84626,-54.09684
2018-09-15 18:00:00+00:00,313.2063,16.8,14.0,47.84626,-54.09684
2018-09-15 18:10:00+00:00,304.5613,16.8,13.92,47.84626,-54.09684
2018-09-15 18:20:00+00:00,294.8781,16.8,14.0,47.84626,-54.09684
2018-09-15 18:30:00+00:00,288.348,16.8,14.0,47.84626,-54.09684
2018-09-15 18:40:00+00:00,284.613,16.8,14.0,47.84626,-54.09684
2018-09-15 18:50:00+00:00,277.3164,16.8,14.0,47.84626,-54.09684
2018-09-15 19:00:00+00:00,268.5164,16.83,14.0,47.84626,-54.09684
2018-09-15 19:10:00+00:00,263.4181,16.87,13.84,47.84626,-54.09684
2018-09-15 19:20:00+00:00,257.0764,16.89,13.84,47.84626,-54.09684
2018-09-15 19:30:00+00:00,245.5114,16.9,13.84,47.84626,-54.09684
2018-09-15 19:40:00+00:00,237.4015,16.9,13.84,47.84626,-54.09684
2018-09-15 19:50:00+00:00,233.1331,16.9,13.84,47.84626,-54.09684
2018-09-15 20:00:00+00:00,224.618,16.9,13.76,47.84626,-54.09684
2018-09-15 20:10:00+00:00,216.4414,16.9,13.68,47.84626,-54.09684
2018-09-15 20:20:00+00:00,213.7014,16.9,13.68,47.84626,-54.09684
2018-09-15 20:30:00+00:00,212.4031,16.9,13.68,47.84626,-54.09684
2018-09-15 20:40:00+00:00,208.1998,16.9,13.68,47.84626,-54.09684
2018-09-15 20:50:00+00:00,206.4464,16.9,13.68,47.84626,-54.09684
2018-09-15 21:00:00+00:00,206.1181,16.9,13.6,47.84626,-54.09684
2018-09-15 21:10:00+00:00,204.6864,16.9,13.44,47.84626,-54.09684
2018-09-15 21:20:00+00:00,206.0781,16.9,13.44,47.84626,-54.09684
2018-09-15 21:30:00+00:00,210.9215,16.9,13.37,47.84626,-54.09684
2018-09-15 21:40:00+00:00,212.1832,16.9,13.37,47.84626,-54.09684
2018-09-15 21:50:00+00:00,213.2965,16.9,13.37,47.84626,-54.09684
2018-09-15 22:00:00+00:00,217.1598,16.9,13.29,47.84626,-54.09684
2018-09-15 22:10:00+00:00,221.0581,16.9,13.13,47.84626,-54.09684
2018-09-15 22:20:00+00:00,221.8848,16.9,13.21,47.84626,-54.09684
2018-09-15 22:30:00+00:00,222.3531,16.9,13.21,47.84626,-54.09684
2018-09-15 22:40:00+00:00,226.5881,16.9,13.21,47.84626,-54.09684
2018-09-15 22:50:00+00:00,233.2214,16.9,13.21,47.84626,-54.09684
2018-09-15 23:00:00+00:00,239.6131,16.9,13.13,47.84626,-54.09684
2018-09-15 23:10:00+00:00,243.7231,16.9,13.05,47.84626,-54.09684
2018-09-15 23:20:00+00:00,244.5681,16.9,13.13,47.84626,-54.09684
2018-09-15 23:30:00+00:00,245.0698,16.9,13.13,47.84626,-54.09684
2018-09-15 23:40:00+00:00,247.5564,16.9,13.13,47.84626,-54.09684
2018-09-15 23:50:00+00:00,250.2281,16.9,13.13,47.84626,-54.09684
